Galeao, Brazil

8:39 AM -03 on May 27, 2017 (GMT -0300)
Galeao-Antonio C Jobim International

Weather History for SBGL - September, 2013

Change the Weather History Date:

Tuesday, September 3, 2013

  Actual Average Record
Temperature  
Mean Temperature 78 °F -  
Max Temperature 90 °F 78 °F 93 °F (1999)
Min Temperature 67 °F 64 °F 57 °F (2002)
Cooling Degree Days 14    
Growing Degree Days 28 (Base 50)    
Moisture  
Dew Point 62 °F    
Average Humidity 66    
Maximum Humidity 94    
Minimum Humidity 26    
Precipitation  
Precipitation 0.43 in - - ()
Sea Level Pressure  
Sea Level Pressure 29.90 in    
Wind  
Wind Speed 4 mph ()    
Max Wind Speed 21 mph    
Max Gust Speed -    
Visibility 6.4 miles    
Events Rain    
Averages and records for this station are not official NWS values.
T = Trace of Precipitation, MM = Missing Value Source: Averaged Metar Reports

Daily Weather History Graph

Daily Weather History Graph

Search for Another Location

Airport or City:

Trip Planner

Search our weather history database for the weather conditions in past years. The results will help you decide how hot, cold, wet, or windy it might be!

Date:

Astronomy

Sep. 03, 2013 Rise Set
Actual Time 6:01 AM -03 5:43 PM -03
Civil Twilight 5:38 AM -03 6:06 PM -03
Nautical Twilight 5:12 AM -03 6:32 PM -03
Astronomical Twilight 4:46 AM -03 6:58 PM -03
Moon 4:29 AM -03 (9/3) 4:14 PM -03 (9/3)
Length of Visible Light 12h 27m
Length of Day
11h 42m
Waning Crescent, 4% of the Moon is Illuminated
Sep 3
Waning Crescent
Sep 5
New
Sep 12
First Quarter
Sep 19
Full
Sep 27
Last Quarter

Hourly Weather History & Observations

Time (-03) Temp. Heat Index Dew Point Humidity Pressure Visibility Wind Dir Wind Speed Gust Speed Precip Events Conditions
12:00 AM 72 °F - 65 °F 72% 29.83 in 12 mi Calm Calm - -  
12:00 AM 71.6 °F - 64.4 °F 78% 29.83 in - Calm Calm - N/A   Clear
1:00 AM 69.8 °F - 62.6 °F 78% 29.83 in - Calm Calm - N/A   Clear
2:00 AM 69.8 °F - 62.6 °F 78% 29.83 in - Calm Calm - N/A   Clear
3:00 AM 67 °F - 63 °F 82% 29.83 in 12 mi Calm Calm - -  
3:00 AM 68.0 °F - 62.6 °F 83% 29.83 in - Calm Calm - N/A   Clear
4:00 AM 68.0 °F - 62.6 °F 83% 29.80 in - Calm Calm - N/A   Clear
5:00 AM 68.0 °F - 62.6 °F 83% 29.80 in - Calm Calm - N/A   Clear
6:00 AM 67 °F - 63 °F 83% 29.81 in 12 mi Calm Calm - -  
6:00 AM 68.0 °F - 62.6 °F 83% 29.80 in - Calm Calm - N/A   Clear
7:00 AM 69.8 °F - 66.2 °F 88% 29.83 in - Calm Calm - N/A   Clear
8:00 AM 80.6 °F 82.3 °F 64.4 °F 58% 29.86 in 5.0 mi SSW 3.5 mph - N/A   Unknown
9:00 AM 86 °F - 61 °F 32% 29.88 in 6 mi WNW 5.8 mph - -   Haze
9:00 AM 86.0 °F 86.1 °F 60.8 °F 43% 29.89 in - WNW 5.8 mph - N/A   Clear
10:00 AM 89.6 °F 87.7 °F 55.4 °F 31% 29.89 in - SW 5.8 mph - N/A   Clear
11:00 AM 89.6 °F 88.1 °F 57.2 °F 33% 29.89 in - SSW 8.1 mph - N/A   Clear
12:00 PM 89 °F - 59 °F 26% 29.88 in 12 mi ESE 11.5 mph - -   Clear
12:00 PM 87.8 °F 87.1 °F 59.0 °F 38% 29.86 in - ESE 11.5 mph - N/A   Clear
1:00 PM 87.8 °F 86.5 °F 57.2 °F 35% 29.86 in - South 13.8 mph - N/A   Clear
2:00 PM 86.0 °F 84.9 °F 57.2 °F 37% 29.86 in - South 17.3 mph - N/A   Clear
3:00 PM 82.4 °F 82.0 °F 57.2 °F 42% 29.86 in - South 20.7 mph - N/A   Clear
4:00 PM 82.4 °F 82.0 °F 57.2 °F 42% 29.89 in 6.2 mi SW 20.7 mph - N/A   Partly Cloudy
5:00 PM 78.8 °F - 57.2 °F 47% 29.95 in 6.2 mi SSW 17.3 mph - N/A   Partly Cloudy
6:00 PM 75.2 °F - 62.6 °F 65% 29.98 in 6.2 mi WSW 11.5 mph - N/A   Mostly Cloudy
7:00 PM 73.4 °F - 66.2 °F 78% 29.98 in 5.0 mi SW 11.5 mph - N/A Rain Light Rain
8:00 PM 71.6 °F - 68.0 °F 88% 30.01 in 6.2 mi West 2.3 mph - N/A   Mostly Cloudy
9:00 PM 71 °F - 67 °F 85% 30.06 in 4 mi WSW 4.6 mph - - Rain Light Rain
9:00 PM 71.6 °F - 68.0 °F 88% 30.04 in 4.3 mi WSW 4.6 mph - N/A Rain Light Rain
9:18 PM 69.8 °F - 68.0 °F 94% 30.06 in 2.5 mi West 4.6 mph - N/A Rain Light Rain
9:25 PM 69.8 °F - 66.2 °F 88% 30.06 in 1.9 mi West 4.6 mph - N/A Rain Rain
10:00 PM 69.8 °F - 66.2 °F 88% 30.06 in 2.5 mi NW 4.6 mph - N/A Rain Light Rain
11:00 PM 69.8 °F - 64.4 °F 83% 30.06 in 5.0 mi NW 5.8 mph - N/A   Overcast